^^
Station Historical Data
Daily Summary for Nil La, TWC- Units:  English    Metric   Both
« Previous Day
Next Day »
Daily Weekly Monthly Yearly Custom
  High: Low: Average:
Temperature: TemperatureF °F 61.2 °F 79.2 °F
Dew Point: DewpointF °F 31.5 °F 39.5 °F
Humidity: Humidity% 14% 25%
Wind Speed: WindSpeedMPHmph 0.0mph 1.7mph
Wind Gust: WindSpeedGustMPHmph - -
Wind- - SSE
Pressure: PressureIn in 29.59 in -
Precipitation: 0.00 in    
Historical Graphs
 
 
Tabular Data for Nil La, TWC-
Time Temperature Dew Point Pressure Wind Wind Speed Wind Gust Humidity Rainfall Rate (Hourly) solar Conditions
TemperatureF °F DewpointF °F PressureIn in Calm     Humidity% HourlyPrecipIn in SolarRadiationWatts/m^2 W/m2 Conditions
00:04 78.6 °F 31.6 °F 29.70 in Calm   1.0 mph 18% 0.00 in 0.00 W/m2
00:09 78.4 °F 31.5 °F 29.70 in Calm     18% 0.00 in 0.00 W/m2
00:14 78.3 °F 32.5 °F 29.70 in NW 0.9 mph 3.0 mph 19% 0.00 in 0.00 W/m2
00:19 77.5 °F 33.3 °F 29.70 in NNW 0.9 mph 4.0 mph 20% 0.00 in 0.00 W/m2
00:24 77.2 °F 33.1 °F 29.70 in NNW 0.9 mph 5.0 mph 20% 0.00 in 0.00 W/m2
00:29 76.6 °F 32.5 °F 29.70 in North 2.9 mph 4.0 mph 20% 0.00 in 0.00 W/m2
00:34 76.5 °F 32.4 °F 29.70 in Calm   2.0 mph 20% 0.00 in 0.00 W/m2
00:39 76.3 °F 33.4 °F 29.70 in Calm     21% 0.00 in 0.00 W/m2
00:44 75.7 °F 33.1 °F 29.70 in Calm     21% 0.00 in 0.00 W/m2
00:49 75.6 °F 34.0 °F 29.70 in Calm   2.0 mph 22% 0.00 in 0.00 W/m2
00:54 75.0 °F 33.6 °F 29.70 in Calm     22% 0.00 in 0.00 W/m2
00:59 74.7 °F 33.3 °F 29.70 in Calm   1.0 mph 22% 0.00 in 0.00 W/m2
01:04 74.3 °F 33.1 °F 29.69 in Calm   2.0 mph 22% 0.00 in 0.00 W/m2
01:08 73.9 °F 32.7 °F 29.69 in North 2.0 mph 3.0 mph 22% 0.00 in 0.00 W/m2
01:14 73.9 °F 32.7 °F 29.69 in Calm   3.0 mph 22% 0.00 in 0.00 W/m2
01:19 73.8 °F 32.5 °F 29.69 in Calm   6.0 mph 22% 0.00 in 0.00 W/m2
01:24 73.8 °F 32.5 °F 29.69 in Calm   1.0 mph 22% 0.00 in 0.00 W/m2
01:29 73.6 °F 33.4 °F 29.69 in Calm     23% 0.00 in 0.00 W/m2
01:34 73.2 °F 33.3 °F 29.69 in Calm   1.0 mph 23% 0.00 in 0.00 W/m2
01:39 73.0 °F 33.1 °F 29.69 in NNE 0.9 mph 2.0 mph 23% 0.00 in 0.00 W/m2
01:44 72.7 °F 32.7 °F 29.69 in Calm   2.0 mph 23% 0.00 in 0.00 W/m2
01:49 72.3 °F 33.4 °F 29.69 in Calm   1.0 mph 24% 0.00 in 0.00 W/m2
01:54 72.0 °F 33.3 °F 29.69 in Calm     24% 0.00 in 0.00 W/m2
01:59 71.8 °F 33.1 °F 29.69 in Calm     24% 0.00 in 0.00 W/m2
02:04 71.2 °F 33.6 °F 29.68 in Calm   1.0 mph 25% 0.00 in 0.00 W/m2
02:09 71.1 °F 33.4 °F 29.68 in Calm     25% 0.00 in 0.00 W/m2
02:14 70.5 °F 33.1 °F 29.68 in NNE 0.9 mph 1.0 mph 25% 0.00 in 0.00 W/m2
02:19 70.3 °F 32.9 °F 29.68 in NNE 2.0 mph 2.0 mph 25% 0.00 in 0.00 W/m2
02:24 70.2 °F 33.6 °F 29.68 in Calm   1.0 mph 26% 0.00 in 0.00 W/m2
02:29 70.0 °F 33.4 °F 29.68 in Calm   3.0 mph 26% 0.00 in 0.00 W/m2
02:34 69.6 °F 33.3 °F 29.68 in Calm   2.0 mph 26% 0.00 in 0.00 W/m2
02:39 69.4 °F 33.1 °F 29.67 in Calm   1.0 mph 26% 0.00 in 0.00 W/m2
02:43 69.3 °F 32.9 °F 29.67 in East 0.9 mph 4.0 mph 26% 0.00 in 0.00 W/m2
02:49 69.1 °F 33.6 °F 29.67 in Calm   1.0 mph 27% 0.00 in 0.00 W/m2
02:54 68.7 °F 33.4 °F 29.67 in Calm     27% 0.00 in 0.00 W/m2
02:59 68.5 °F 34.2 °F 29.67 in Calm     28% 0.00 in 0.00 W/m2
03:04 68.5 °F 34.2 °F 29.67 in Calm     28% 0.00 in 0.00 W/m2
03:09 68.2 °F 33.8 °F 29.67 in Calm     28% 0.00 in 0.00 W/m2
03:14 68.0 °F 33.6 °F 29.67 in Calm     28% 0.00 in 0.00 W/m2
03:19 67.8 °F 34.3 °F 29.67 in Calm     29% 0.00 in 0.00 W/m2
03:24 67.6 °F 33.4 °F 29.67 in Calm     28% 0.00 in 0.00 W/m2
03:29 67.5 °F 34.2 °F 29.66 in Calm     29% 0.00 in 0.00 W/m2
03:34 67.3 °F 34.0 °F 29.66 in Calm     29% 0.00 in 0.00 W/m2
03:39 66.9 °F 33.6 °F 29.66 in Calm     29% 0.00 in 0.00 W/m2
03:44 66.7 °F 34.3 °F 29.66 in Calm     30% 0.00 in 0.00 W/m2
03:49 66.6 °F 34.2 °F 29.65 in Calm   1.0 mph 30% 0.00 in 0.00 W/m2
03:54 66.4 °F 34.0 °F 29.65 in Calm   1.0 mph 30% 0.00 in 0.00 W/m2
03:59 66.2 °F 33.8 °F 29.65 in Calm   1.0 mph 30% 0.00 in 0.00 W/m2
04:04 66.0 °F 33.6 °F 29.65 in Calm   1.0 mph 30% 0.00 in 0.00 W/m2
04:09 66.0 °F 33.6 °F 29.65 in Calm   1.0 mph 30% 0.00 in 0.00 W/m2
04:14 65.8 °F 33.6 °F 29.65 in Calm   2.0 mph 30% 0.00 in 0.00 W/m2
04:19 65.8 °F 33.6 °F 29.65 in Calm   1.0 mph 30% 0.00 in 0.00 W/m2
04:24 65.7 °F 33.4 °F 29.65 in Calm   1.0 mph 30% 0.00 in 0.00 W/m2
04:29 65.7 °F 34.2 °F 29.65 in Calm   1.0 mph 31% 0.00 in 0.00 W/m2
04:34 65.5 °F 34.0 °F 29.65 in Calm   1.0 mph 31% 0.00 in 0.00 W/m2
04:39 65.3 °F 33.8 °F 29.66 in Calm   1.0 mph 31% 0.00 in 0.00 W/m2
04:44 65.1 °F 33.8 °F 29.66 in Calm   3.0 mph 31% 0.00 in 0.00 W/m2
04:49 64.9 °F 33.6 °F 29.66 in ESE 0.9 mph 2.0 mph 31% 0.00 in 0.00 W/m2
04:54 64.9 °F 34.3 °F 29.66 in Calm   1.0 mph 32% 0.00 in 0.00 W/m2
04:59 64.8 °F 34.2 °F 29.66 in ESE 0.9 mph 1.0 mph 32% 0.00 in 0.00 W/m2
05:04 64.6 °F 34.0 °F 29.67 in Calm   2.0 mph 32% 0.00 in 0.00 W/m2
05:08 64.6 °F 34.0 °F 29.67 in Calm   2.0 mph 32% 0.00 in 0.00 W/m2
05:14 64.4 °F 34.7 °F 29.67 in Calm   1.0 mph 33% 0.00 in 0.00 W/m2
05:19 64.2 °F 34.5 °F 29.67 in Calm     33% 0.00 in 0.00 W/m2
05:24 64.0 °F 35.1 °F 29.67 in Calm     34% 0.00 in 0.00 W/m2
05:29 64.0 °F 34.3 °F 29.67 in Calm   1.0 mph 33% 0.00 in 0.00 W/m2
05:34 63.9 °F 34.2 °F 29.67 in Calm   1.0 mph 33% 0.00 in 0.00 W/m2
05:39 63.7 °F 34.7 °F 29.67 in Calm   1.0 mph 34% 0.00 in 0.00 W/m2
05:44 63.5 °F 34.7 °F 29.67 in Calm   1.0 mph 34% 0.00 in 0.00 W/m2
05:49 63.3 °F 35.2 °F 29.67 in Calm     35% 0.00 in 0.00 W/m2
05:54 63.1 °F 35.1 °F 29.67 in Calm     35% 0.00 in 0.00 W/m2
05:59 63.0 °F 35.6 °F 29.67 in Calm     36% 0.00 in 0.00 W/m2
06:04 62.6 °F 35.2 °F 29.67 in Calm     36% 0.00 in 0.00 W/m2
06:09 62.2 °F 35.6 °F 29.67 in Calm     37% 0.00 in 0.00 W/m2
06:14 62.1 °F 35.4 °F 29.67 in Calm     37% 0.00 in 0.00 W/m2
06:19 61.9 °F 35.2 °F 29.67 in Calm     37% 0.00 in 0.00 W/m2
06:24 61.7 °F 35.2 °F 29.68 in Calm     37% 0.00 in 0.00 W/m2
06:29 61.5 °F 35.6 °F 29.68 in Calm     38% 0.00 in 0.00 W/m2
06:34 61.3 °F 35.6 °F 29.68 in Calm     38% 0.00 in 0.00 W/m2
06:38 61.2 °F 36.0 °F 29.68 in Calm   1.0 mph 39% 0.00 in 0.00 W/m2
06:44 61.2 °F 36.0 °F 29.68 in East 0.9 mph 1.0 mph 39% 0.00 in 0.00 W/m2
06:49 61.2 °F 35.4 °F 29.68 in East 0.9 mph 2.0 mph 38% 0.00 in 5.00 W/m2
06:54 61.2 °F 35.4 °F 29.69 in Calm   3.0 mph 38% 0.00 in 7.00 W/m2
06:59 61.2 °F 35.4 °F 29.70 in South 0.9 mph 4.0 mph 38% 0.00 in 11.00 W/m2
07:04 61.5 °F 35.1 °F 29.70 in South 2.0 mph 4.0 mph 37% 0.00 in 12.00 W/m2
07:09 62.2 °F 34.9 °F 29.70 in SE 2.0 mph 5.0 mph 36% 0.00 in 14.00 W/m2
07:14 63.0 °F 34.9 °F 29.70 in SE 0.9 mph 3.0 mph 35% 0.00 in 14.00 W/m2
07:19 63.5 °F 34.7 °F 29.70 in SE 0.9 mph 3.0 mph 34% 0.00 in 16.00 W/m2
07:24 64.0 °F 35.1 °F 29.70 in SE 2.0 mph 4.0 mph 34% 0.00 in 18.00 W/m2
07:29 64.6 °F 34.9 °F 29.71 in Calm   1.0 mph 33% 0.00 in 19.00 W/m2
07:34 65.1 °F 35.2 °F 29.71 in ENE 0.9 mph 2.0 mph 33% 0.00 in 19.00 W/m2
07:39 65.8 °F 34.3 °F 29.72 in North 2.0 mph 6.0 mph 31% 0.00 in 21.00 W/m2
07:44 66.6 °F 35.8 °F 29.72 in East 4.0 mph 4.0 mph 32% 0.00 in 23.00 W/m2
07:49 66.9 °F 36.1 °F 29.72 in ESE 2.9 mph 5.0 mph 32% 0.00 in 30.00 W/m2
07:54 67.5 °F 35.8 °F 29.73 in Calm   4.0 mph 31% 0.00 in 25.00 W/m2
07:59 67.6 °F 36.0 °F 29.73 in North 6.0 mph 6.0 mph 31% 0.00 in 39.00 W/m2
08:04 68.4 °F 38.1 °F 29.73 in SE 0.9 mph 1.0 mph 33% 0.00 in 28.00 W/m2
08:09 69.3 °F 38.1 °F 29.73 in East 6.0 mph 7.0 mph 32% 0.00 in 30.00 W/m2
08:14 70.2 °F 39.7 °F 29.73 in East 4.0 mph 7.0 mph 33% 0.00 in 33.00 W/m2
08:19 71.2 °F 41.4 °F 29.73 in ESE 2.0 mph 5.0 mph 34% 0.00 in 32.00 W/m2
08:24 72.1 °F 43.7 °F 29.73 in NNE 4.9 mph 12.0 mph 36% 0.00 in 30.00 W/m2
08:29 73.0 °F 44.4 °F 29.72 in Calm   6.0 mph 36% 0.00 in 32.00 W/m2
08:34 73.6 °F 45.0 °F 29.73 in NNE 0.9 mph 3.0 mph 36% 0.00 in 33.00 W/m2
08:39 73.9 °F 44.6 °F 29.73 in NNE 2.9 mph 6.0 mph 35% 0.00 in 33.00 W/m2
08:44 74.5 °F 45.0 °F 29.72 in East 0.9 mph 7.0 mph 35% 0.00 in 33.00 W/m2
08:49 74.8 °F 46.0 °F 29.72 in NNE 2.0 mph 6.0 mph 36% 0.00 in 39.00 W/m2
08:54 75.2 °F 47.1 °F 29.72 in NNE 0.9 mph 4.0 mph 37% 0.00 in 98.00 W/m2
08:59 75.6 °F 47.5 °F 29.72 in NNE 2.9 mph 5.0 mph 37% 0.00 in 513.00 W/m2
09:04 75.9 °F 47.8 °F 29.72 in Calm   6.0 mph 37% 0.00 in 531.00 W/m2
09:09 76.6 °F 48.4 °F 29.72 in ESE 6.0 mph 6.0 mph 37% 0.00 in 548.00 W/m2
09:14 77.5 °F 48.6 °F 29.72 in Calm   1.0 mph 36% 0.00 in 568.00 W/m2
09:18 78.4 °F 48.6 °F 29.72 in North 6.9 mph 7.0 mph 35% 0.00 in 580.00 W/m2
09:24 79.3 °F 48.6 °F 29.72 in North 2.9 mph 7.0 mph 34% 0.00 in 606.00 W/m2
09:29 79.9 °F 48.9 °F 29.72 in North 4.9 mph 6.0 mph 34% 0.00 in 624.00 W/m2
09:34 80.4 °F 48.7 °F 29.72 in NE 2.9 mph 5.0 mph 33% 0.00 in 640.00 W/m2
09:39 81.0 °F 50.0 °F 29.72 in North 2.0 mph 4.0 mph 34% 0.00 in 659.00 W/m2
09:43 81.3 °F 48.6 °F 29.72 in NNE 2.9 mph 7.0 mph 32% 0.00 in 670.00 W/m2
09:49 81.9 °F 49.1 °F 29.72 in Calm   3.0 mph 32% 0.00 in 687.00 W/m2
09:54 82.4 °F 48.7 °F 29.72 in ENE 2.9 mph 6.0 mph 31% 0.00 in 707.00 W/m2
09:59 82.8 °F 49.1 °F 29.72 in Calm   2.0 mph 31% 0.00 in 717.00 W/m2
10:04 82.8 °F 49.1 °F 29.72 in WSW 0.9 mph 3.0 mph 31% 0.00 in 738.00 W/m2
10:09 82.9 °F 47.5 °F 29.72 in NNW 4.9 mph 8.0 mph 29% 0.00 in 752.00 W/m2
10:14 83.5 °F 47.8 °F 29.72 in NNW 6.9 mph 9.0 mph 29% 0.00 in 765.00 W/m2
10:19 83.7 °F 47.1 °F 29.72 in NNW 2.0 mph 7.0 mph 28% 0.00 in 782.00 W/m2
10:24 84.0 °F 46.4 °F 29.72 in North 6.0 mph 7.0 mph 27% 0.00 in 800.00 W/m2
10:29 84.4 °F 46.8 °F 29.72 in Calm   3.0 mph 27% 0.00 in 814.00 W/m2
10:34 84.9 °F 47.1 °F 29.72 in WSW 2.0 mph 7.0 mph 27% 0.00 in 823.00 W/m2
10:39 85.3 °F 47.5 °F 29.72 in NW 6.0 mph 8.0 mph 27% 0.00 in 833.00 W/m2
10:44 85.6 °F 45.9 °F 29.72 in NNW 0.9 mph 2.0 mph 25% 0.00 in 853.00 W/m2
10:49 85.8 °F 46.9 °F 29.72 in North 4.0 mph 8.0 mph 26% 0.00 in 870.00 W/m2
10:54 86.4 °F 46.4 °F 29.71 in West 0.9 mph 7.0 mph 25% 0.00 in 879.00 W/m2
10:59 86.5 °F 46.6 °F 29.71 in NNE 4.9 mph 6.0 mph 25% 0.00 in 891.00 W/m2
11:04 86.7 °F 45.7 °F 29.71 in Calm   4.0 mph 24% 0.00 in 904.00 W/m2
11:09 87.1 °F 45.9 °F 29.71 in NW 2.0 mph 5.0 mph 24% 0.00 in 932.00 W/m2
11:14 87.4 °F 45.1 °F 29.71 in NE 8.1 mph 9.0 mph 23% 0.00 in 976.00 W/m2
11:19 87.4 °F 45.1 °F 29.71 in NNE 2.0 mph 8.0 mph 23% 0.00 in 967.00 W/m2
11:24 87.6 °F 45.3 °F 29.71 in SSE 0.9 mph 6.0 mph 23% 0.00 in 991.00 W/m2
11:29 88.0 °F 43.2 °F 29.71 in NNW 8.1 mph 10.0 mph 21% 0.00 in 1053.00 W/m2
11:34 88.0 °F 44.4 °F 29.71 in SSE 4.0 mph 7.0 mph 22% 0.00 in 192.00 W/m2
11:39 87.8 °F 43.0 °F 29.70 in NNE 2.0 mph 6.0 mph 21% 0.00 in 1095.00 W/m2
11:44 88.2 °F 43.3 °F 29.70 in NNW 6.9 mph 10.0 mph 21% 0.00 in 1062.00 W/m2
11:49 88.7 °F 43.7 °F 29.70 in North 2.9 mph 4.0 mph 21% 0.00 in 1085.00 W/m2
11:54 89.2 °F 44.2 °F 29.69 in Calm   10.0 mph 21% 0.00 in 1097.00 W/m2
11:59 89.2 °F 44.2 °F 29.69 in NNE 2.0 mph 10.0 mph 21% 0.00 in 229.00 W/m2
12:04 88.3 °F 42.3 °F 29.69 in SSE 6.0 mph 8.0 mph 20% 0.00 in 306.00 W/m2
12:09 88.2 °F 43.3 °F 29.69 in North 2.9 mph 3.0 mph 21% 0.00 in 297.00 W/m2
12:14 87.6 °F 42.8 °F 29.69 in NE 6.9 mph 8.0 mph 21% 0.00 in 355.00 W/m2
12:19 87.6 °F 42.8 °F 29.68 in ESE 6.0 mph 7.0 mph 21% 0.00 in 1223.00 W/m2
12:24 88.2 °F 43.3 °F 29.68 in Calm   4.0 mph 21% 0.00 in 1164.00 W/m2
12:29 88.9 °F 43.9 °F 29.67 in North 4.0 mph 8.0 mph 21% 0.00 in 1194.00 W/m2
12:34 89.2 °F 43.0 °F 29.67 in ENE 11.0 mph 11.0 mph 20% 0.00 in 241.00 W/m2
12:39 88.9 °F 45.1 °F 29.67 in NNW 4.9 mph 6.0 mph 22% 0.00 in 592.00 W/m2
12:44 88.7 °F 45.0 °F 29.67 in WNW 2.0 mph 7.0 mph 22% 0.00 in 285.00 W/m2
12:49 88.9 °F 43.9 °F 29.67 in WNW 8.9 mph 11.0 mph 21% 0.00 in 1290.00 W/m2
12:54 88.7 °F 43.7 °F 29.67 in NNW 4.0 mph 8.0 mph 21% 0.00 in 272.00 W/m2
12:59 88.3 °F 42.3 °F 29.67 in NW 2.9 mph 7.0 mph 20% 0.00 in 1248.00 W/m2
13:04 88.5 °F 42.3 °F 29.67 in North 6.0 mph 13.0 mph 20% 0.00 in 1241.00 W/m2
13:09 89.1 °F 41.4 °F 29.66 in WNW 2.9 mph 9.0 mph 19% 0.00 in 1155.00 W/m2
13:14 90.0 °F 42.3 °F 29.66 in NNE 2.9 mph 7.0 mph 19% 0.00 in 1157.00 W/m2
13:19 90.3 °F 41.0 °F 29.67 in East 6.9 mph 13.0 mph 18% 0.00 in 1141.00 W/m2
13:24 90.7 °F 41.4 °F 29.66 in NNW 6.0 mph 7.0 mph 18% 0.00 in 1143.00 W/m2
13:29 91.2 °F 41.7 °F 29.66 in NW 8.1 mph 8.0 mph 18% 0.00 in 1134.00 W/m2
13:34 91.9 °F 40.8 °F 29.66 in Calm   7.0 mph 17% 0.00 in 1136.00 W/m2
13:39 92.1 °F 41.0 °F 29.65 in NNW 2.9 mph 4.0 mph 17% 0.00 in 1169.00 W/m2
13:44 92.5 °F 41.4 °F 29.65 in North 0.9 mph 5.0 mph 17% 0.00 in 1215.00 W/m2
13:49 91.8 °F 40.8 °F 29.65 in North 2.9 mph 11.0 mph 17% 0.00 in 241.00 W/m2
13:54 91.2 °F 40.3 °F 29.65 in SW 0.9 mph 2.0 mph 17% 0.00 in 283.00 W/m2
13:59 91.2 °F 41.7 °F 29.64 in SE 4.0 mph 5.0 mph 18% 0.00 in 1109.00 W/m2
14:04 92.1 °F 39.6 °F 29.64 in NNW 8.1 mph 10.0 mph 16% 0.00 in 1174.00 W/m2
14:09 92.3 °F 39.6 °F 29.64 in SE 0.9 mph 6.0 mph 16% 0.00 in 1100.00 W/m2
14:14 92.5 °F 39.7 °F 29.64 in NE 8.9 mph 11.0 mph 16% 0.00 in 1123.00 W/m2
14:19 92.7 °F 39.9 °F 29.64 in Calm   7.0 mph 16% 0.00 in 1134.00 W/m2
14:24 92.8 °F 38.5 °F 29.63 in North 2.9 mph 10.0 mph 15% 0.00 in 603.00 W/m2
14:29 93.0 °F 38.5 °F 29.63 in North 0.9 mph 5.0 mph 15% 0.00 in 1165.00 W/m2
14:34 93.6 °F 40.6 °F 29.63 in NE 6.0 mph 8.0 mph 16% 0.00 in 1183.00 W/m2
14:39 93.6 °F 40.6 °F 29.63 in NNW 0.9 mph 4.0 mph 16% 0.00 in 271.00 W/m2
14:44 93.7 °F 40.8 °F 29.63 in Calm   8.0 mph 16% 0.00 in 1109.00 W/m2
14:49 94.3 °F 39.6 °F 29.63 in Calm   3.0 mph 15% 0.00 in 490.00 W/m2
14:54 93.9 °F 39.2 °F 29.63 in NE 0.9 mph 7.0 mph 15% 0.00 in 1090.00 W/m2
14:59 93.7 °F 40.8 °F 29.63 in West 4.9 mph 6.0 mph 16% 0.00 in 260.00 W/m2
15:04 93.0 °F 40.3 °F 29.63 in NNE 2.9 mph 7.0 mph 16% 0.00 in 223.00 W/m2
15:09 92.1 °F 39.6 °F 29.62 in North 4.9 mph 7.0 mph 16% 0.00 in 1034.00 W/m2
15:14 92.5 °F 39.7 °F 29.62 in East 2.9 mph 8.0 mph 16% 0.00 in 986.00 W/m2
15:19 93.0 °F 40.3 °F 29.62 in Calm   7.0 mph 16% 0.00 in 979.00 W/m2
15:24 93.6 °F 39.0 °F 29.62 in WNW 2.9 mph 6.0 mph 15% 0.00 in 969.00 W/m2
15:29 94.1 °F 39.4 °F 29.61 in Calm   10.0 mph 15% 0.00 in 984.00 W/m2
15:34 93.9 °F 39.2 °F 29.62 in NNE 2.9 mph 5.0 mph 15% 0.00 in 970.00 W/m2
15:39 93.6 °F 37.2 °F 29.62 in NNW 4.9 mph 8.0 mph 14% 0.00 in 970.00 W/m2
15:43 93.4 °F 37.0 °F 29.61 in Calm   5.0 mph 14% 0.00 in 986.00 W/m2
15:49 93.7 °F 39.2 °F 29.61 in South 0.9 mph 3.0 mph 15% 0.00 in 958.00 W/m2
15:54 94.3 °F 39.6 °F 29.61 in North 2.9 mph 6.0 mph 15% 0.00 in 916.00 W/m2
15:59 94.6 °F 39.7 °F 29.60 in NNE 0.9 mph 8.0 mph 15% 0.00 in 881.00 W/m2
16:04 94.8 °F 39.9 °F 29.60 in North 2.9 mph 5.0 mph 15% 0.00 in 821.00 W/m2
16:08 95.2 °F 40.3 °F 29.60 in NNW 8.1 mph 8.0 mph 15% 0.00 in 830.00 W/m2
16:14 95.4 °F 40.5 °F 29.60 in NW 6.0 mph 7.0 mph 15% 0.00 in 809.00 W/m2
16:18 95.5 °F 40.5 °F 29.60 in NW 2.0 mph 3.0 mph 15% 0.00 in 826.00 W/m2
16:23 95.5 °F 40.5 °F 29.60 in NE 2.9 mph 8.0 mph 15% 0.00 in 585.00 W/m2
16:29 95.2 °F 40.3 °F 29.60 in NE 2.0 mph 9.0 mph 15% 0.00 in 197.00 W/m2
16:34 94.1 °F 39.4 °F 29.60 in NNE 2.9 mph 3.0 mph 15% 0.00 in 241.00 W/m2
16:39 93.0 °F 40.3 °F 29.60 in North 4.0 mph 4.0 mph 16% 0.00 in 253.00 W/m2
16:44 93.0 °F 40.3 °F 29.59 in WNW 0.9 mph 5.0 mph 16% 0.00 in 686.00 W/m2
16:49 93.6 °F 40.6 °F 29.59 in NNE 2.9 mph 8.0 mph 16% 0.00 in 146.00 W/m2
16:54 93.0 °F 40.3 °F 29.59 in Calm   1.0 mph 16% 0.00 in 185.00 W/m2
16:59 92.5 °F 39.7 °F 29.59 in NW 4.0 mph 7.0 mph 16% 0.00 in 139.00 W/m2
17:04 91.8 °F 39.2 °F 29.59 in North 4.0 mph 7.0 mph 16% 0.00 in 142.00 W/m2
17:09 91.0 °F 38.7 °F 29.59 in NW 2.9 mph 6.0 mph 16% 0.00 in 132.00 W/m2
17:14 90.3 °F 38.1 °F 29.59 in NNW 2.0 mph 6.0 mph 16% 0.00 in 132.00 W/m2
17:19 90.3 °F 39.6 °F 29.59 in Calm   3.0 mph 17% 0.00 in 522.00 W/m2
17:24 90.9 °F 41.5 °F 29.59 in North 0.9 mph 7.0 mph 18% 0.00 in 499.00 W/m2
17:28 91.2 °F 40.3 °F 29.59 in NNE 4.0 mph 9.0 mph 17% 0.00 in 445.00 W/m2
17:34 91.6 °F 40.6 °F 29.59 in NNW 2.9 mph 9.0 mph 17% 0.00 in 397.00 W/m2
17:39 91.6 °F 39.0 °F 29.59 in NNW 2.9 mph 8.0 mph 16% 0.00 in 383.00 W/m2
17:44 91.8 °F 39.2 °F 29.59 in NW 2.0 mph 2.0 mph 16% 0.00 in 359.00 W/m2
17:49 91.9 °F 39.4 °F 29.59 in North 4.0 mph 5.0 mph 16% 0.00 in 77.00 W/m2
17:50 91.8 °F 39.2 °F 29.59 in North 2.9 mph 6.0 mph 16% 0.00 in 72.00 W/m2
18:19 88.3 °F 39.4 °F 29.59 in NNE 4.0 mph 6.0 mph 18% 0.00 in 42.00 W/m2
18:24 88.0 °F 39.2 °F 29.59 in NW 2.9 mph 5.0 mph 18% 0.00 in 35.00 W/m2
18:29 87.6 °F 40.3 °F 29.60 in Calm   2.0 mph 19% 0.00 in 25.00 W/m2
18:34 87.6 °F 40.3 °F 29.60 in Calm   1.0 mph 19% 0.00 in 21.00 W/m2
18:39 87.4 °F 41.4 °F 29.60 in South 0.9 mph 5.0 mph 20% 0.00 in 19.00 W/m2
18:44 86.7 °F 42.1 °F 29.60 in West 4.9 mph 10.0 mph 21% 0.00 in 18.00 W/m2
18:49 85.5 °F 41.0 °F 29.60 in SSW 4.0 mph 11.0 mph 21% 0.00 in 18.00 W/m2
18:54 84.7 °F 41.7 °F 29.61 in West 6.9 mph 13.0 mph 22% 0.00 in 18.00 W/m2
18:59 84.4 °F 41.4 °F 29.61 in WSW 0.9 mph 6.0 mph 22% 0.00 in 14.00 W/m2
19:03 84.0 °F 41.0 °F 29.61 in South 2.9 mph 12.0 mph 22% 0.00 in 11.00 W/m2
19:09 83.7 °F 40.8 °F 29.61 in SW 2.9 mph 7.0 mph 22% 0.00 in 7.00 W/m2
19:14 83.5 °F 40.6 °F 29.61 in West 2.9 mph 7.0 mph 22% 0.00 in 5.00 W/m2
19:19 83.3 °F 40.5 °F 29.61 in West 2.0 mph 5.0 mph 22% 0.00 in 0.00 W/m2
19:24 83.1 °F 40.3 °F 29.61 in WNW 0.9 mph 1.0 mph 22% 0.00 in 0.00 W/m2
19:29 83.1 °F 41.5 °F 29.62 in North 0.9 mph 2.0 mph 23% 0.00 in 0.00 W/m2
19:34 83.1 °F 40.3 °F 29.62 in Calm     22% 0.00 in 0.00 W/m2
19:39 82.9 °F 41.4 °F 29.62 in Calm     23% 0.00 in 0.00 W/m2
19:44 82.8 °F 41.2 °F 29.62 in Calm   1.0 mph 23% 0.00 in 0.00 W/m2
19:49 82.8 °F 41.2 °F 29.62 in Calm     23% 0.00 in 0.00 W/m2
19:54 82.6 °F 41.0 °F 29.62 in Calm   1.0 mph 23% 0.00 in 0.00 W/m2
19:59 82.6 °F 41.0 °F 29.62 in Calm     23% 0.00 in 0.00 W/m2
20:04 82.2 °F 40.8 °F 29.63 in Calm   1.0 mph 23% 0.00 in 0.00 W/m2
20:09 82.2 °F 40.8 °F 29.63 in Calm   1.0 mph 23% 0.00 in 0.00 W/m2
20:14 82.0 °F 40.6 °F 29.63 in Calm   1.0 mph 23% 0.00 in 0.00 W/m2
20:19 81.9 °F 41.5 °F 29.63 in Calm   1.0 mph 24% 0.00 in 0.00 W/m2
20:24 81.9 °F 40.5 °F 29.63 in NE 0.9 mph 3.0 mph 23% 0.00 in 0.00 W/m2
20:29 81.7 °F 41.4 °F 29.63 in Calm   2.0 mph 24% 0.00 in 0.00 W/m2
20:34 81.7 °F 40.3 °F 29.63 in Calm   1.0 mph 23% 0.00 in 0.00 W/m2
20:38 81.7 °F 41.4 °F 29.63 in Calm   1.0 mph 24% 0.00 in 0.00 W/m2
20:44 81.7 °F 41.4 °F 29.63 in Calm     24% 0.00 in 0.00 W/m2
20:49 81.7 °F 41.4 °F 29.63 in Calm     24% 0.00 in 0.00 W/m2
20:54 81.5 °F 41.2 °F 29.63 in Calm     24% 0.00 in 0.00 W/m2
20:59 81.3 °F 41.0 °F 29.63 in Calm   1.0 mph 24% 0.00 in 0.00 W/m2
21:04 81.1 °F 41.9 °F 29.64 in Calm   1.0 mph 25% 0.00 in 0.00 W/m2
21:09 81.0 °F 41.9 °F 29.64 in Calm   3.0 mph 25% 0.00 in 0.00 W/m2
21:14 80.8 °F 41.7 °F 29.64 in Calm   2.0 mph 25% 0.00 in 0.00 W/m2
21:18 80.8 °F 41.7 °F 29.65 in Calm   2.0 mph 25% 0.00 in 0.00 W/m2
21:24 80.6 °F 41.5 °F 29.65 in Calm   1.0 mph 25% 0.00 in 0.00 W/m2
21:29 80.6 °F 41.5 °F 29.65 in Calm     25% 0.00 in 0.00 W/m2
21:34 80.4 °F 41.4 °F 29.65 in Calm     25% 0.00 in 0.00 W/m2
21:39 80.4 °F 41.4 °F 29.65 in Calm     25% 0.00 in 0.00 W/m2
21:44 80.2 °F 41.2 °F 29.66 in ESE 0.9 mph 5.0 mph 25% 0.00 in 0.00 W/m2
21:49 80.1 °F 41.0 °F 29.66 in Calm   3.0 mph 25% 0.00 in 0.00 W/m2
21:54 80.1 °F 42.1 °F 29.66 in ENE 0.9 mph 2.0 mph 26% 0.00 in 0.00 W/m2
21:59 80.1 °F 41.0 °F 29.67 in Calm   1.0 mph 25% 0.00 in 0.00 W/m2
22:04 79.9 °F 41.0 °F 29.67 in Calm   1.0 mph 25% 0.00 in 0.00 W/m2
22:09 79.9 °F 41.9 °F 29.67 in Calm   1.0 mph 26% 0.00 in 0.00 W/m2
22:14 80.1 °F 42.1 °F 29.67 in Calm   1.0 mph 26% 0.00 in 0.00 W/m2
22:19 80.1 °F 42.1 °F 29.67 in Calm     26% 0.00 in 0.00 W/m2
22:24 80.1 °F 42.1 °F 29.68 in ESE 0.9 mph 2.0 mph 26% 0.00 in 0.00 W/m2
22:29 80.1 °F 44.1 °F 29.69 in Calm   2.0 mph 28% 0.00 in 0.00 W/m2
22:34 80.1 °F 52.2 °F 29.69 in Calm   6.0 mph 38% 0.00 in 0.00 W/m2
22:39 79.5 °F 52.3 °F 29.69 in SSW 0.9 mph 2.0 mph 39% 0.00 in 0.00 W/m2
22:44 79.2 °F 51.4 °F 29.69 in Calm   2.0 mph 38% 0.00 in 0.00 W/m2
22:49 78.6 °F 47.8 °F 29.69 in SW 4.0 mph 5.0 mph 34% 0.00 in 0.00 W/m2
22:54 78.4 °F 46.2 °F 29.69 in SSW 2.9 mph 6.0 mph 32% 0.00 in 0.00 W/m2
22:59 78.4 °F 44.4 °F 29.69 in SSW 6.0 mph 7.0 mph 30% 0.00 in 0.00 W/m2
23:04 78.4 °F 43.5 °F 29.69 in South 4.0 mph 9.0 mph 29% 0.00 in 0.00 W/m2
23:09 78.6 °F 43.7 °F 29.69 in SW 4.0 mph 8.0 mph 29% 0.00 in 0.00 W/m2
23:14 79.0 °F 44.1 °F 29.69 in SSW 0.9 mph 7.0 mph 29% 0.00 in 0.00 W/m2
23:19 79.0 °F 45.0 °F 29.68 in SSW 2.9 mph 3.0 mph 30% 0.00 in 0.00 W/m2
23:24 79.0 °F 44.1 °F 29.68 in SSW 4.9 mph 5.0 mph 29% 0.00 in 0.00 W/m2
Olympia, Windhoek, Namibia
Compliments of Weather Underground - 3.25 mb